Wetbulb
79.11 79.13 79.02 78.90 79.40 78.48 77.85 77.43 77.60 77.47 76.79 74.84 74.23 73.85 73.73 73.42 73.23 72.35 71.75 71.49 70.64 70.41 69.64 69.54 68.47 69.99 68.21 68.11 68.80 67.93 66.97 65.56 62.58 63.72 65.86 66.56 67.99 67.83 68.06 68.81 68.91 67.02 67.03
78.84 78.80 79.04 79.34 79.12 78.55 77.24 78.36 78.63 76.92 76.78 74.68 74.37 73.79 73.17 72.75 72.64 71.98 70.40 69.76 70.31 69.87 69.78 70.07 69.39 68.99 69.41 69.83 68.55 68.04 67.14 67.26 64.57 62.95 64.90 65.77 65.98 67.88 68.70 67.78 67.89 66.63 66.15
78.33 78.39 78.69 78.71 78.39 78.16 78.15 77.03 78.12 77.67 76.88 74.92 74.23 73.31 72.91 72.19 72.07 71.68 71.07 70.38 70.23 68.11 70.04 69.43 69.09 69.12 68.79 67.86 68.28 67.70 67.10 66.57 65.96 64.09 63.81 65.53 64.86 66.05 65.45 66.47 66.30 66.71 66.81
77.67 77.69 77.74 78.22 78.31 78.04 78.22 78.01 78.03 78.32 76.87 74.65 73.80 73.31 72.76 72.01 72.01 71.40 71.36 70.77 69.99 69.67 70.01 69.69 69.47 69.25 68.83 68.35 67.91 66.20 66.26 65.84 64.95 63.68 62.97 62.95 64.23 65.38 64.71 62.73 61.96 63.89 63.47
76.17 76.67 77.58 78.83 78.62 78.69 78.20 78.26 78.12 78.11 77.01 75.39 73.73 73.08 72.21 70.92 71.59 70.97 71.18 70.33 69.54 69.28 69.47 69.81 69.71 70.03 68.64 67.08 67.78 67.63 65.55 64.30 62.71 62.20 60.49 60.53 60.86 60.81 59.80 61.20 60.92 62.06 62.60
75.09 76.08 77.12 78.02 78.67 78.57 78.50 78.24 77.82 77.50 76.40 74.93 72.99 71.97 71.31 70.16 66.10 66.10 70.04 69.91 69.77 69.10 68.54 69.94 70.28 68.96 66.62 65.18 64.98 64.42 64.80 63.26 62.02 61.20 61.08 59.93 60.30 61.86 62.21 61.33 60.60 59.23 57.25
75.84 76.08 76.85 78.10 78.42 78.48 78.53 78.06 77.37 76.76 75.70 73.64 72.45 71.51 70.11 70.30 63.62 63.68 66.56 69.83 69.18 68.84 69.39 69.49 69.42 68.66 67.76 66.81 64.29 63.83 63.82 63.46 63.30 63.18 60.02 59.85 60.95 62.22 62.65 61.12 60.54 59.86 58.56
76.83 76.83 77.79 78.44 78.47 78.59 78.13 77.52 77.25 76.43 74.29 72.30 71.71 70.87 70.16 71.15 61.43 61.72 64.61 67.62 68.01 69.74 68.70 69.86 69.24 69.37 67.84 66.92 65.42 65.13 64.95 65.29 64.25 63.27 62.39 62.00 62.89 63.22 62.78 61.12 59.37 58.26 58.78
76.39 78.51 78.59 78.88 78.47 78.11 77.15 76.86 76.28 75.41 72.94 71.68 71.19 70.67 70.52 70.97 60.70 59.55 62.40 66.48 66.09 67.32 68.74 69.96 69.56 69.29 66.14 61.75 64.89 64.16 64.14 63.50 63.23 61.68 61.90 61.70 60.42 59.55 59.53 59.25 57.04 56.00 55.25
77.74 78.33 79.50 79.36 78.53 77.43 77.03 76.46 76.94 76.06 72.97 71.06 69.96 70.45 67.76 69.92 59.13 57.90 61.27 66.27 65.33 66.94 69.37 68.99 62.75 66.52 60.11 58.83 63.41 63.81 62.09 62.56 63.89 63.79 63.81 62.42 60.43 60.41 59.81 59.40 58.73 56.24 56.01
78.91 79.29 79.34 79.01 78.41 78.17 76.48 75.71 74.95 74.24 73.59 71.49 69.83 69.47 70.54 68.82 68.72 56.61 56.37 67.22 68.36 68.10 67.38 67.85 68.73 58.68 56.29 55.89 56.79 63.35 62.09 60.33 61.30 61.45 60.81 59.69 59.90 60.65 60.65 61.38 61.14 59.27 57.49
78.51 78.50 78.23 78.27 76.32 76.36 74.43 73.55 72.82 71.55 70.95 69.77 68.52 68.32 69.34 69.71 63.38 55.77 54.96 56.92 62.38 68.10 68.27 68.37 66.88 56.19 53.56 53.70 55.55 59.86 54.55 55.30 58.63 58.21 57.67 57.61 58.13 58.53 59.52 59.48 60.36 59.79 58.81
77.45 76.96 76.30 76.10 75.37 74.31 72.66 72.60 69.69 70.11 68.26 67.85 67.64 66.96 67.45 70.83 70.63 56.73 52.99 54.24 56.79 63.90 62.93 57.14 52.58 52.23 52.95 53.47 54.25 55.94 53.28 57.48 57.38 56.81 57.01 56.94 56.93 58.66 59.07 57.75 59.33 60.65 60.62
75.86 75.65 75.40 73.76 72.30 71.70 70.65 70.62 69.06 68.03 68.24 68.54 68.22 68.73 69.96 69.94 67.59 65.17 62.99 59.42 56.45 60.39 56.49 57.05 57.06 57.41 57.81 58.52 57.05 54.92 56.84 58.48 58.43 58.42 57.23 57.35 58.30 56.97 55.90 56.17 53.75 53.03 50.92
74.75 72.77 71.52 70.76 69.24 62.67 57.59 56.22 67.73 60.82 61.80 68.80 68.79 69.28 68.23 67.24 66.39 61.55 61.07 62.84 62.45 60.60 61.86 62.99 59.04 59.23 59.34 58.44 58.78 59.82 58.82 58.65 57.31 57.17 57.52 56.60 55.22 54.72 53.93 54.37 52.58 50.55 49.80
71.18 71.04 69.46 68.10 66.27 63.30 61.92 57.92 45.96 46.40 44.95 45.43 48.79 61.70 55.45 51.20 46.51 45.41 44.20 45.14 47.65 51.64 59.19 64.22 62.75 61.97 59.99 58.01 59.08 58.82 58.97 57.86 56.60 56.77 57.34 55.45 53.99 53.19 52.23 52.17 51.41 51.75 50.16
69.83 69.86 69.37 68.35 68.55 67.07 65.49 63.17 58.42 50.99 44.97 43.23 43.90 47.62 50.16 46.88 43.70 43.11 43.03 44.18 46.02 50.49 62.24 61.31 60.19 59.86 59.49 59.76 59.47 57.57 55.20 55.57 57.06 57.07 56.37 55.41 53.77 52.87 51.24 50.64 50.60 50.49 50.30
71.05 61.86 69.12 69.11 68.82 68.72 67.18 65.53 62.07 59.65 59.58 57.12 46.42 48.07 42.56 42.27 42.19 42.37 43.12 47.34 56.14 53.88 58.35 58.52 59.16 60.63 60.65 60.05 57.41 57.12 57.12 56.49 56.25 55.44 53.70 52.63 52.38 52.07 50.58 50.04 50.64 49.84 49.18
70.38 69.66 68.37 68.35 67.79 66.34 66.93 65.97 64.39 63.59 61.74 57.21 53.85 50.24 45.72 42.79 42.80 43.56 43.83 56.61 58.18 59.49 58.56 59.36 58.73 58.39 58.01 57.85 57.57 57.09 56.03 54.96 52.40 52.03 51.59 51.64 52.21 50.39 49.95 50.25 49.74 47.67 47.96
67.78 63.02 65.43 66.51 65.20 65.72 65.29 64.55 64.50 64.02 61.40 58.79 57.90 56.11 54.50 52.22 54.00 54.62 54.79 57.03 59.61 58.32 57.58 56.76 56.90 57.28 57.08 56.65 56.32 55.45 54.07 53.24 52.86 53.02 52.57 51.69 51.69 50.85 49.19 49.18 49.07 48.91 49.00
65.19 64.71 61.00 65.41 64.85 64.55 64.88 64.88 64.56 63.25 62.13 61.25 60.76 58.51 51.56 57.48 58.00 58.42 58.45 59.07 58.52 59.09 58.53 57.65 57.31 57.17 57.01 56.11 55.17 52.64 51.50 51.84 52.42 51.52 50.69 50.40 50.81 49.22 50.72 49.63 49.50 49.53 48.86
65.23 63.67 64.55 64.48 64.74 65.67 65.56 65.75 65.11 63.04 62.89 61.86 60.48 55.97 47.54 58.32 59.67 60.59 59.42 59.86 59.04 59.34 58.93 58.37 56.90 56.91 55.80 53.41 51.97 51.49 51.19 51.42 51.67 50.53 49.93 49.87 49.89 49.78 49.80 48.99 49.58 49.56 48.71
64.90 63.87 63.66 63.92 63.66 59.86 62.08 59.92 63.05 60.87 57.80 60.22 59.55 57.67 55.95 58.48 59.28 60.32 58.67 58.90 57.18 59.03 59.13 57.51 57.33 56.12 55.38 52.80 52.14 51.98 51.40 50.91 50.40 50.22 49.80 49.41 49.23 50.19 49.48 49.34 49.28 48.60 48.45
64.36 63.96 63.86 63.64 61.34 62.61 62.74 59.89 61.60 56.01 60.11 60.35 58.80 58.45 58.17 59.23 59.14 60.25 59.17 59.88 59.43 56.70 58.45 57.26 56.47 55.12 53.40 52.15 51.70 51.57 51.73 49.85 49.22 48.64 48.01 47.91 48.63 49.50 49.16 49.32 48.94 48.13 49.02
63.59 60.15 62.82 62.02 61.65 60.37 59.86 60.53 61.79 61.94 61.38 60.69 57.41 58.54 57.42 59.43 57.54 57.34 59.63 59.44 59.05 58.55 57.66 56.85 56.04 55.26 53.33 52.54 52.00 45.32 36.73 34.00 44.32 36.60 46.80 47.42 47.99 50.12 49.45 47.59 48.79 47.95 49.43
61.34 60.95 60.68 61.34 59.51 60.66 61.50 60.76 61.24 61.40 58.69 60.71 58.92 58.76 58.76 58.75 56.64 59.15 59.25 58.62 58.04 57.77 57.61 56.68 55.63 55.05 53.16 51.35 50.67 37.58 31.49 33.04 39.66 33.92 41.09 44.55 46.76 49.48 47.78 47.33 49.06 47.57 48.46
MSLP
1005.64 1006.34 1007.06 1007.66 1008.28 1009.06 1009.37 1009.83 1010.21 1010.77 1011.17 1012.02 1012.66 1013.27 1013.91 1014.51 1015.04 1015.50 1015.82 1015.93 1016.08 1016.25 1016.44 1016.71 1016.97 1017.33 1017.55 1017.45 1017.51 1017.61 1017.78 1017.78 1017.97 1017.72 1017.43 1017.14 1017.06 1017.02 1016.81 1016.69 1016.72 1016.76 1016.62
1004.43 1005.39 1005.98 1006.69 1007.39 1008.05 1008.66 1008.81 1009.42 1010.18 1010.77 1011.65 1012.31 1012.84 1013.35 1013.92 1014.40 1014.97 1015.43 1015.53 1015.73 1015.71 1016.10 1016.41 1016.78 1016.96 1017.27 1017.44 1017.39 1017.35 1017.43 1017.47 1017.71 1017.64 1017.37 1017.13 1016.85 1016.62 1016.40 1016.35 1016.19 1016.05 1016.05
1003.54 1004.34 1005.05 1005.73 1006.42 1007.00 1007.55 1008.21 1008.74 1009.46 1010.18 1010.84 1011.41 1011.94 1012.54 1013.10 1013.70 1014.35 1014.82 1015.04 1015.21 1015.37 1015.58 1015.86 1016.21 1016.52 1016.69 1016.80 1017.03 1017.11 1017.28 1017.43 1017.49 1017.53 1017.45 1016.99 1016.60 1016.36 1016.16 1016.06 1015.94 1015.82 1015.61
1002.23 1003.18 1003.93 1004.68 1005.27 1005.88 1006.68 1007.50 1007.98 1008.60 1009.28 1009.91 1010.55 1011.37 1012.01 1012.46 1012.99 1013.67 1014.22 1014.48 1014.55 1014.76 1015.04 1015.37 1015.52 1015.72 1015.96 1016.51 1016.76 1016.97 1017.01 1017.28 1017.44 1017.57 1017.35 1017.00 1016.57 1016.21 1016.20 1016.28 1016.02 1015.65 1015.27
1000.93 1002.02 1002.69 1003.54 1004.37 1005.20 1006.02 1006.65 1007.29 1007.92 1008.51 1009.43 1010.32 1010.90 1011.31 1011.99 1012.45 1012.84 1013.38 1013.81 1014.08 1014.24 1014.49 1014.78 1015.15 1015.23 1015.45 1015.82 1016.27 1016.54 1016.89 1017.01 1017.22 1017.10 1017.14 1016.92 1016.49 1016.33 1016.23 1016.09 1015.96 1015.40 1014.89
999.63 1000.58 1001.67 1002.76 1003.61 1004.33 1005.17 1005.85 1006.59 1007.22 1008.03 1008.90 1009.61 1010.33 1011.01 1011.48 1011.90 1012.50 1012.82 1013.46 1013.67 1013.82 1014.16 1014.17 1014.47 1014.89 1015.21 1015.49 1015.91 1016.10 1016.18 1016.54 1016.67 1016.82 1016.78 1016.87 1016.54 1016.31 1015.97 1016.00 1015.91 1015.61 1015.15
998.50 999.62 1000.68 1001.66 1002.60 1003.51 1004.38 1005.17 1005.93 1006.69 1007.64 1008.54 1009.34 1010.02 1010.70 1011.15 1011.33 1011.85 1012.35 1012.68 1013.16 1013.29 1013.43 1013.69 1013.99 1014.53 1014.94 1015.37 1015.42 1015.56 1015.76 1016.02 1016.18 1016.27 1016.32 1016.18 1016.35 1016.06 1015.91 1016.02 1015.74 1015.58 1015.29
997.75 998.78 999.74 1000.68 1001.72 1002.80 1003.77 1004.62 1005.47 1006.27 1007.17 1008.04 1008.79 1009.48 1010.14 1010.60 1010.94 1011.54 1011.83 1012.26 1012.48 1012.54 1012.80 1012.89 1013.25 1013.68 1014.24 1014.82 1015.14 1015.29 1015.34 1015.37 1015.38 1015.59 1015.72 1015.41 1015.34 1015.21 1015.29 1015.46 1015.30 1014.95 1014.57
997.16 997.98 998.92 999.96 1001.19 1002.36 1003.39 1004.27 1005.07 1005.89 1006.81 1007.51 1008.35 1009.17 1009.77 1010.11 1010.73 1011.08 1011.75 1012.20 1012.29 1012.39 1012.32 1012.61 1012.78 1013.32 1013.78 1014.49 1014.78 1014.83 1014.95 1014.92 1014.65 1014.74 1014.67 1014.49 1014.61 1014.54 1014.53 1014.75 1014.53 1014.55 1014.08
996.58 997.49 998.70 999.91 1001.14 1002.34 1003.38 1004.28 1005.03 1005.90 1006.80 1007.46 1008.24 1008.83 1009.40 1009.82 1010.21 1010.67 1011.28 1011.55 1012.02 1012.04 1011.93 1012.12 1012.49 1013.03 1013.58 1014.15 1014.44 1014.38 1014.43 1014.27 1014.03 1013.93 1014.09 1014.07 1013.97 1013.86 1013.65 1013.80 1013.65 1013.86 1013.77
996.48 997.50 998.67 1000.01 1001.21 1002.35 1003.41 1004.40 1005.39 1006.40 1007.21 1007.85 1008.29 1008.62 1009.04 1009.64 1010.27 1010.70 1011.10 1011.44 1011.38 1011.48 1011.65 1011.99 1012.25 1012.59 1013.17 1013.89 1014.34 1014.42 1014.20 1013.98 1013.97 1013.86 1013.82 1013.56 1013.23 1013.00 1012.63 1012.33 1012.77 1013.40 1013.26
996.64 997.77 998.89 1000.12 1001.37 1002.47 1003.47 1004.18 1004.40 1005.58 1007.08 1008.21 1008.60 1008.89 1009.11 1009.49 1009.76 1010.56 1010.92 1011.31 1011.46 1011.41 1011.46 1011.55 1011.81 1012.17 1012.87 1013.45 1014.17 1014.28 1014.31 1014.05 1014.03 1013.84 1013.65 1013.20 1012.82 1012.36 1012.18 1012.26 1012.20 1012.15 1012.05
997.18 998.40 999.43 1000.43 1001.76 1002.84 1003.86 1004.92 1005.92 1005.78 1006.12 1007.49 1007.89 1008.21 1008.31 1008.87 1009.45 1009.89 1010.32 1010.91 1011.22 1011.34 1011.57 1011.79 1011.84 1011.83 1012.74 1013.26 1013.81 1014.13 1014.06 1013.92 1013.81 1013.60 1013.18 1012.95 1012.75 1012.30 1012.10 1012.00 1011.74 1011.48 1011.43
997.84 999.03 999.98 1000.94 1002.19 1003.35 1004.47 1005.24 1006.13 1006.10 1006.86 1007.55 1007.95 1007.67 1008.09 1008.56 1009.34 1010.12 1010.50 1010.90 1011.00 1011.15 1011.46 1011.82 1012.15 1012.45 1012.50 1012.59 1013.16 1013.54 1013.50 1013.35 1013.26 1013.05 1012.87 1012.60 1012.37 1012.37 1012.25 1011.99 1011.92 1011.56 1011.40
998.53 999.79 1000.71 1001.61 1002.67 1004.30 1005.74 1006.68 1006.62 1007.17 1007.74 1008.07 1007.99 1007.45 1007.82 1008.09 1008.67 1009.51 1010.21 1010.55 1010.89 1011.11 1011.27 1011.63 1011.98 1011.95 1011.82 1012.09 1012.18 1012.33 1012.67 1012.80 1012.87 1012.67 1012.46 1012.47 1012.46 1012.45 1012.25 1011.90 1011.69 1011.46 1011.20
999.53 1000.44 1001.35 1002.26 1003.23 1004.36 1005.46 1006.75 1007.34 1007.83 1007.97 1007.77 1007.44 1007.52 1008.51 1008.42 1009.19 1009.90 1010.36 1010.57 1010.44 1010.42 1010.84 1010.84 1011.18 1011.02 1010.94 1011.09 1011.34 1011.67 1011.99 1012.25 1012.28 1012.19 1012.20 1012.41 1012.43 1012.27 1012.12 1011.81 1011.46 1011.14 1010.91
999.59 1000.33 1001.29 1001.87 1002.58 1003.05 1004.51 1006.03 1006.84 1008.09 1008.40 1008.84 1008.07 1008.15 1008.56 1009.33 1009.61 1010.11 1010.42 1010.62 1010.92 1010.54 1010.40 1010.49 1010.51 1010.40 1010.57 1010.78 1011.08 1011.33 1011.49 1011.70 1011.73 1011.85 1011.98 1012.16 1012.16 1012.00 1011.79 1011.55 1011.22 1010.87 1010.58
1000.00 1000.90 1001.22 1000.84 1001.46 1002.87 1003.38 1005.05 1005.97 1006.67 1007.28 1008.73 1009.26 1009.16 1009.41 1009.75 1010.00 1010.35 1010.72 1010.71 1010.80 1010.68 1010.43 1010.14 1009.98 1010.01 1010.20 1010.57 1010.81 1010.94 1011.24 1011.48 1011.69 1011.90 1012.09 1012.08 1011.96 1011.73 1011.56 1011.30 1010.90 1010.68 1010.36
999.92 1000.33 1001.09 1000.93 1001.22 1002.11 1003.05 1003.80 1004.35 1005.21 1006.44 1008.22 1009.31 1009.86 1010.25 1010.28 1010.35 1010.55 1010.55 1010.43 1010.09 1009.75 1009.95 1009.73 1009.75 1010.00 1010.34 1010.54 1010.86 1011.17 1011.50 1011.80 1012.09 1012.21 1012.19 1012.02 1011.73 1011.61 1011.35 1011.03 1010.74 1010.35 1009.98
1000.69 1001.04 1001.12 1001.13 1001.50 1001.97 1002.73 1002.88 1003.20 1004.03 1005.57 1007.07 1008.15 1009.11 1009.82 1010.01 1010.02 1010.27 1010.10 1009.90 1009.65 1009.59 1009.69 1009.92 1010.01 1010.30 1010.72 1010.99 1011.29 1011.55 1011.77 1011.83 1011.78 1011.75 1011.82 1011.70 1011.60 1011.45 1011.26 1010.97 1010.63 1010.22 1009.80
1000.94 1001.04 1001.35 1001.45 1001.99 1002.10 1002.42 1002.50 1002.80 1003.48 1004.52 1005.73 1006.69 1007.79 1008.34 1008.76 1008.65 1008.71 1008.82 1009.02 1009.32 1009.49 1009.74 1010.07 1010.46 1010.60 1010.86 1011.13 1011.41 1011.62 1011.65 1011.51 1011.46 1011.53 1011.68 1011.74 1011.66 1011.54 1011.13 1010.94 1010.54 1010.06 1009.72
1000.41 1000.86 1001.13 1000.86 1001.31 1002.04 1002.45 1002.56 1002.84 1003.34 1004.09 1005.09 1006.17 1007.43 1007.86 1008.13 1007.72 1007.87 1008.09 1008.38 1008.79 1009.33 1009.82 1010.22 1010.58 1010.64 1010.77 1011.11 1011.35 1011.46 1011.43 1011.41 1011.47 1011.71 1011.98 1012.00 1011.82 1011.53 1011.26 1010.99 1010.42 1010.04 1009.79
1000.41 1000.92 1001.47 1001.83 1002.05 1002.46 1003.07 1003.34 1003.66 1003.95 1004.90 1005.18 1005.82 1007.09 1007.67 1007.55 1007.41 1007.51 1007.89 1008.19 1008.54 1009.02 1009.48 1009.97 1010.46 1010.70 1010.89 1011.19 1011.49 1011.57 1011.65 1011.66 1011.78 1012.03 1012.29 1012.31 1011.96 1011.58 1011.36 1010.94 1010.48 1010.15 1009.82
1000.87 1001.18 1001.88 1002.50 1002.58 1002.92 1003.43 1003.86 1003.76 1004.08 1004.51 1005.10 1005.80 1006.46 1006.76 1006.87 1006.89 1007.16 1007.64 1007.96 1008.38 1008.66 1009.16 1009.72 1010.25 1010.53 1010.92 1011.28 1011.47 1011.53 1011.68 1012.10 1012.30 1012.55 1012.88 1012.74 1012.23 1011.64 1011.45 1010.97 1010.56 1010.29 1009.82
1000.87 1001.31 1001.72 1002.41 1003.00 1003.42 1003.41 1003.62 1003.24 1003.58 1003.97 1004.56 1005.38 1005.86 1006.14 1006.40 1006.70 1006.94 1007.23 1007.86 1008.24 1008.29 1008.72 1009.26 1009.73 1010.16 1010.66 1011.17 1011.55 1012.23 1012.59 1012.74 1012.88 1013.18 1013.01 1012.80 1012.39 1011.83 1011.33 1011.13 1010.73 1010.32 1009.86
1000.95 1001.39 1001.76 1002.23 1002.44 1002.83 1003.07 1003.28 1003.77 1003.89 1004.15 1004.67 1004.80 1005.06 1005.29 1006.07 1006.34 1006.54 1006.67 1007.27 1007.59 1007.63 1008.04 1008.61 1009.18 1009.70 1010.20 1010.80 1011.33 1012.43 1012.82 1012.92 1013.05 1013.29 1013.35 1013.01 1012.42 1011.75 1011.59 1011.33 1010.74 1010.37 1010.10
Wind_Speed
20 19 18 17 17 16 13 13 13 10 8 13 13 12 12 10 10 9 6 7 7 6 4 3 3 2 3 3 2 2 2 3 3 4 2 3 2 3 5 4 5 6 7
20 18 19 17 17 17 16 14 13 13 10 12 12 13 13 11 11 11 10 7 9 9 8 6 5 5 7 5 3 5 3 3 3 6 4 3 5 6 6 5 5 5 5
19 19 18 18 18 18 18 17 14 14 12 13 13 14 14 13 12 12 11 9 9 7 7 6 6 6 5 4 3 3 3 4 3 4 4 4 4 4 5 4 4 4 5
21 20 19 19 19 18 16 16 15 16 15 15 14 13 14 14 13 13 13 11 8 8 8 8 8 7 7 6 5 5 4 3 4 5 6 7 4 3 1 2 4 4 6
20 21 19 18 18 16 15 15 15 15 14 13 12 13 14 12 10 14 14 12 9 9 8 8 7 8 6 7 3 3 2 1 1 2 8 7 7 5 6 5 5 5 3
20 21 18 17 17 16 15 15 15 14 13 13 14 13 13 9 13 15 12 10 11 9 9 7 6 6 6 9 8 8 6 4 4 2 3 7 9 5 4 6 6 7 8
17 18 18 17 18 17 16 15 15 14 13 12 12 11 12 11 11 15 15 9 9 10 10 8 7 5 8 7 8 8 8 10 8 3 6 8 10 9 4 7 6 6 8
15 17 17 17 17 17 15 14 13 11 13 11 11 11 11 10 12 11 15 11 6 8 9 10 8 7 8 8 6 5 6 6 7 6 9 10 11 10 5 5 7 7 8
16 14 15 16 16 16 15 14 11 10 10 10 10 11 11 8 9 10 11 7 7 9 8 7 7 9 9 8 6 6 5 6 7 14 16 17 10 8 9 4 8 6 9
14 13 12 14 14 13 12 9 8 8 8 7 9 8 9 7 11 13 11 6 9 8 7 8 10 9 8 10 8 6 7 8 6 6 3 4 7 10 16 11 10 9 9
12 12 13 13 12 11 10 7 6 5 6 6 7 5 6 7 8 11 14 8 8 5 6 6 6 12 10 9 9 6 5 2 5 4 5 6 7 8 10 9 7 6 7
12 13 13 12 9 8 12 10 13 11 7 6 5 4 4 6 9 8 11 11 0 5 4 4 5 6 10 10 8 7 2 2 4 5 6 7 7 4 3 2 4 5 6
14 14 13 12 10 10 10 8 5 7 10 8 7 7 6 6 5 8 10 8 6 1 3 4 8 10 8 7 8 8 5 3 5 6 6 4 4 4 5 5 6 6 6
15 13 13 13 13 11 7 7 6 5 5 6 6 5 4 4 6 5 5 6 6 6 7 5 6 7 7 4 7 7 5 5 5 4 4 4 4 3 4 3 3 3 5
14 12 11 11 11 10 9 5 4 7 3 4 6 5 6 7 6 6 5 4 4 5 5 4 5 5 6 7 6 7 7 6 4 5 2 3 3 4 3 4 3 5 7
13 10 9 9 10 8 8 7 15 9 5 5 4 4 6 13 14 14 11 9 8 8 4 4 5 7 7 4 6 4 4 7 4 2 2 2 4 3 4 4 4 4 5
13 13 10 10 11 12 10 8 9 7 11 11 10 11 10 13 12 12 10 9 4 1 2 3 4 5 4 4 4 4 4 4 5 1 2 3 3 4 5 4 5 4 4
11 8 9 10 11 10 10 10 8 8 8 5 10 8 10 10 10 9 8 5 2 1 3 5 4 2 1 3 2 2 4 4 4 4 4 4 5 3 4 5 4 4 4
9 7 3 6 8 8 8 11 11 10 10 8 7 5 6 8 9 7 4 2 4 2 4 2 4 4 4 4 5 4 4 3 3 2 3 5 3 4 4 5 5 7 7
5 5 9 6 5 7 5 6 7 9 12 10 8 8 7 5 5 5 4 5 2 2 4 4 4 4 4 4 4 3 2 3 4 3 3 3 3 4 5 5 6 5 5
3 3 6 9 5 5 6 5 5 7 7 10 9 11 13 8 7 7 7 5 3 0 3 3 3 3 2 2 2 1 4 3 2 2 3 4 4 4 4 5 7 5 6
6 7 6 6 8 5 2 3 2 4 5 6 7 11 18 7 5 3 4 4 4 5 2 4 1 3 3 4 4 3 3 2 2 4 4 4 4 5 4 7 5 5 5
4 4 9 8 7 7 4 7 1 6 6 6 9 9 8 6 4 4 5 4 5 4 4 4 1 1 2 4 1 2 2 3 4 4 3 4 5 4 4 6 5 5 4
8 8 7 6 5 2 4 5 5 2 9 8 9 9 8 6 5 5 5 4 3 5 5 4 2 1 4 3 1 2 2 5 4 6 6 5 7 5 5 6 4 8 3
7 6 5 6 7 6 5 7 3 6 4 4 6 7 5 5 4 4 5 4 4 5 6 6 4 4 6 3 1 9 7 9 7 2 3 6 9 11 4 7 5 7 4
8 9 8 6 4 4 2 4 4 3 4 3 4 5 7 7 6 6 6 7 6 6 7 6 7 7 7 7 5 12 7 7 5 4 3 5 7 6 3 7 6 6 5
Wind_Direction
190 194 200 202 199 200 204 201 191 203 175 169 173 177 186 187 181 185 204 201 186 181 197 201 146 196 265 284 7 345 280 206 208 287 245 264 281 263 258 255 233 238 242
190 194 200 198 198 197 206 202 194 194 174 169 177 181 188 186 188 186 202 216 192 184 187 180 192 209 213 227 259 260 275 302 249 259 271 291 275 258 239 227 241 265 252
192 196 200 200 198 200 201 206 196 193 182 182 184 188 188 188 188 190 200 210 205 194 193 185 203 214 212 227 230 260 298 293 312 265 273 264 266 270 273 257 249 263 272
192 199 201 199 201 203 201 198 202 194 191 193 191 191 193 190 189 192 198 210 199 200 191 204 202 206 203 202 215 246 246 287 307 301 291 280 278 278 97 288 279 248 254
192 197 202 200 200 201 200 197 201 197 196 192 191 197 196 193 192 193 201 202 201 209 200 204 219 219 151 136 192 185 153 115 293 309 299 307 305 315 306 294 282 281 310
189 195 197 194 194 199 197 197 195 199 188 192 198 198 194 197 192 197 195 202 208 198 218 209 212 155 149 145 160 180 170 182 216 222 279 280 284 290 319 323 321 308 298
187 192 191 186 190 193 191 194 192 191 188 192 197 193 192 200 201 194 194 200 200 208 208 209 209 194 161 173 184 190 205 219 218 215 233 247 279 280 293 284 284 296 284
190 187 188 184 185 184 185 188 190 190 190 187 190 190 193 200 177 193 200 207 215 220 212 210 200 199 185 192 192 212 232 237 214 209 229 246 247 253 238 244 262 264 268
189 184 180 179 175 176 179 188 188 178 186 185 183 188 197 211 183 190 186 204 217 238 230 221 198 212 199 201 201 221 242 254 238 236 237 249 241 232 241 264 270 273 275
189 181 167 161 166 169 177 177 184 175 171 177 182 191 190 203 177 190 185 190 224 229 218 225 219 219 197 187 210 222 243 259 245 276 309 261 252 251 248 242 250 254 262
168 162 152 156 159 157 149 145 141 153 153 172 175 187 177 194 214 194 195 214 225 228 227 231 220 202 192 219 217 254 262 355 319 308 286 277 263 255 252 253 236 238 262
155 149 144 139 147 141 143 152 149 137 137 160 164 199 207 221 222 194 205 214 309 238 240 236 226 164 181 193 194 239 172 355 285 283 278 273 281 279 5 3 228 236 250
138 135 130 134 117 118 122 126 131 145 141 174 188 189 202 204 191 177 173 172 186 179 53 103 124 118 144 154 193 181 189 235 254 262 270 287 316 315 327 315 284 275 266
126 130 130 121 117 118 127 140 152 140 157 178 198 186 163 147 145 161 175 179 160 160 131 130 159 175 180 164 168 206 222 233 246 258 288 290 283 330 309 300 308 307 307
123 120 112 115 105 87 68 27 87 51 31 199 208 184 162 169 160 145 153 157 165 197 186 183 194 206 199 200 203 197 202 219 236 249 278 310 337 301 301 312 305 303 289
124 126 133 124 125 124 124 106 57 62 52 45 31 123 55 89 115 119 114 108 118 134 192 208 216 232 221 195 187 185 181 211 234 264 32 340 290 309 291 289 282 280 300
136 140 144 153 149 154 142 148 134 77 75 44 49 95 113 140 122 124 121 112 64 53 246 283 278 274 135 150 166 182 206 165 181 170 242 258 283 276 294 297 285 299 302
128 146 164 167 151 162 147 160 147 154 138 118 42 72 88 115 120 124 142 162 166 207 261 249 238 356 91 148 164 44 44 31 23 14 3 342 292 288 301 293 297 301 297
150 153 144 129 128 137 159 162 157 155 129 116 117 95 91 80 81 81 65 278 285 297 205 298 35 33 40 37 48 52 51 16 19 336 285 267 297 324 308 301 312 306 304
101 94 161 124 127 134 160 176 156 140 134 142 156 152 157 159 164 175 207 221 264 340 47 27 25 64 50 45 41 30 334 264 253 216 253 344 316 326 309 321 310 308 312
133 90 15 134 176 161 173 188 177 141 150 153 164 156 168 183 191 191 186 156 164 268 73 72 33 56 46 149 172 266 271 258 287 28 12 357 346 314 309 322 308 321 327
136 162 197 199 158 142 132 161 130 158 184 151 137 155 166 206 213 145 144 134 139 134 133 93 42 334 56 47 18 340 311 320 7 53 17 341 324 311 358 308 315 325 336
164 101 64 56 73 70 53 25 316 102 105 156 145 154 175 209 202 135 129 134 144 138 125 121 105 58 73 108 352 323 336 353 57 53 357 335 311 334 315 315 325 331 332
135 140 126 118 105 171 185 186 135 172 134 158 156 173 184 201 190 148 152 139 146 144 133 129 134 45 83 81 339 240 74 66 47 42 16 316 305 331 316 310 348 317 329
73 43 128 139 160 221 148 218 247 166 178 150 158 177 185 163 180 192 151 173 222 186 154 153 154 179 152 166 6 95 92 68 67 18 315 325 305 305 358 329 342 312 345
155 173 163 166 152 179 179 86 109 141 151 196 181 193 157 184 183 210 177 179 225 192 169 160 167 176 148 162 137 129 130 117 104 66 335 296 293 309 26 308 329 319 354